Time,TemperatureF,DewpointF,PressureIn,WindDirection,WindDirectionDegrees,WindSpeedMPH,WindSpeedGustMPH,Humidity,HourlyPrecipIn,Conditions,Clouds,dailyrainin,SoftwareType,DateUTC
2013-09-11 00:44:00,75.0,-99.9,30.14,North,-999,-999.0,7.0,-999,0.00,,,-99.99,,2013-09-11 04:44:00,
2013-09-11 00:52:00,74.0,-99.9,30.14,WSW,255,-999.0,-999.0,-999,0.00,,,-99.99,,2013-09-11 04:52:00,
2013-09-11 01:43:00,74.0,-99.9,30.14,WSW,255,-999.0,-999.0,-999,0.00,,,-99.99,,2013-09-11 05:43:00,
2013-09-11 01:52:00,74.0,-99.9,30.12,North,-999,-999.0,10.0,-999,0.00,,,-99.99,,2013-09-11 05:52:00,
2013-09-11 02:42:00,74.0,-99.9,30.12,North,-999,-999.0,10.0,-999,0.00,,,-99.99,,2013-09-11 06:42:00,
2013-09-11 02:52:00,74.0,-99.9,30.12,West,265,-999.0,9.0,-999,0.00,,,-99.99,,2013-09-11 06:52:00,
2013-09-11 03:42:00,74.0,-99.9,30.12,West,265,-999.0,9.0,-999,0.00,,,-99.99,,2013-09-11 07:42:00,
2013-09-11 03:52:00,74.0,-99.9,30.10,North,-999,-999.0,10.0,-999,0.00,,,-99.99,,2013-09-11 07:52:00,
2013-09-11 04:42:00,74.0,-99.9,30.10,North,-999,-999.0,10.0,-999,0.00,,,-99.99,,2013-09-11 08:42:00,
2013-09-11 05:52:00,74.0,-99.9,30.11,North,-999,-999.0,5.0,-999,0.00,,,-99.99,,2013-09-11 09:52:00,
2013-09-11 06:43:00,74.0,-99.9,30.11,North,-999,-999.0,5.0,-999,0.00,,,-99.99,,2013-09-11 10:43:00,
2013-09-11 06:52:00,73.0,-99.9,30.13,North,-999,-999.0,-999.0,-999,0.00,,,-99.99,,2013-09-11 10:52:00,
2013-09-11 07:42:00,73.0,-99.9,30.13,North,-999,-999.0,-999.0,-999,0.00,,,-99.99,,2013-09-11 11:42:00,
2013-09-11 07:52:00,74.0,-99.9,30.14,SW,229,4.0,9.0,-999,0.00,,,-99.99,,2013-09-11 11:52:00,
2013-09-11 08:42:00,74.0,-99.9,30.14,SW,229,4.0,9.0,-999,0.00,,,-99.99,,2013-09-11 12:42:00,
2013-09-11 08:52:00,74.0,-99.9,30.14,East,96,-999.0,7.0,-999,0.00,,,-99.99,,2013-09-11 12:52:00,
2013-09-11 09:42:00,74.0,-99.9,30.14,East,96,-999.0,7.0,-999,0.00,,,-99.99,,2013-09-11 13:42:00,
2013-09-11 10:52:00,76.0,-99.9,30.13,WNW,299,4.0,6.0,-999,0.00,,,-99.99,,2013-09-11 14:52:00,
2013-09-11 11:43:00,76.0,-99.9,30.13,WNW,299,4.0,6.0,-999,0.00,,,-99.99,,2013-09-11 15:43:00,
2013-09-11 14:52:00,84.0,-99.9,30.06,WNW,285,9.0,10.0,-999,0.00,,,-99.99,,2013-09-11 18:52:00,
2013-09-11 15:42:00,84.0,-99.9,30.06,WNW,285,9.0,10.0,-999,0.00,,,-99.99,,2013-09-11 19:42:00,
2013-09-11 15:52:00,84.0,-99.9,30.04,WSW,250,9.0,14.0,-999,0.00,,,-99.99,,2013-09-11 19:52:00,
2013-09-11 16:42:00,84.0,-99.9,30.04,WSW,250,9.0,14.0,-999,0.00,,,-99.99,,2013-09-11 20:42:00,
2013-09-11 16:52:00,82.0,-99.9,30.03,WNW,286,10.0,18.0,-999,0.00,,,-99.99,,2013-09-11 20:52:00,
2013-09-11 17:44:00,82.0,-99.9,30.03,WNW,286,10.0,18.0,-999,0.00,,,-99.99,,2013-09-11 21:44:00,
2013-09-11 17:52:00,80.0,-99.9,30.03,SW,230,8.0,14.0,-999,0.00,,,-99.99,,2013-09-11 21:52:00,
2013-09-11 18:43:00,80.0,-99.9,30.03,SW,230,8.0,14.0,-999,0.00,,,-99.99,,2013-09-11 22:43:00,
2013-09-11 18:52:00,78.0,-99.9,30.03,WSW,252,6.0,10.0,-999,0.00,,,-99.99,,2013-09-11 22:52:00,
2013-09-11 19:42:00,78.0,-99.9,30.03,WSW,252,6.0,10.0,-999,0.00,,,-99.99,,2013-09-11 23:42:00,
2013-09-11 19:52:00,78.0,-99.9,30.04,West,278,5.0,7.0,-999,0.00,,,-99.99,,2013-09-11 23:52:00,
2013-09-11 20:42:00,78.0,-99.9,30.04,West,278,5.0,7.0,-999,0.00,,,-99.99,,2013-09-12 00:42:00,
2013-09-11 20:52:00,77.0,-99.9,30.05,WSW,242,3.0,5.0,-999,0.00,,,-99.99,,2013-09-12 00:52:00,
2013-09-11 21:42:00,77.0,-99.9,30.05,WSW,242,3.0,5.0,-999,0.00,,,-99.99,,2013-09-12 01:42:00,
2013-09-11 21:52:00,77.0,-99.9,30.05,North,-999,-999.0,6.0,-999,0.00,,,-99.99,,2013-09-12 01:52:00,
2013-09-11 22:52:00,76.0,-99.9,30.04,WSW,242,7.0,8.0,-999,0.00,,,-99.99,,2013-09-12 02:52:00,
2013-09-11 23:45:00,76.0,-99.9,30.04,WSW,242,7.0,8.0,-999,0.00,,,-99.99,,2013-09-12 03:45:00,
2013-09-11 23:52:00,76.0,-99.9,30.02,North,-999,9.0,10.0,-999,0.00,,,-99.99,,2013-09-12 03:52:00,